Location: Austin
(30.3000°N, 97.7500°W)
Time: 23:41:22
(UTC-05:00)

Cosmos 2219 Rocket - Pass Details

Date: 05 September 2024
Orbit: 826 x 846 km, 71.0° (Epoch: 14 September)

Event Time Altitude Azimuth Distance (km) Brightness Sun altitude
Rises 21:42:51 0° 225° (SW) 3,390 5.6 -24.6°
Reaches altitude 10° 21:45:35 10° 236° (SW) 2,459 5.0 -25.2°
Maximum altitude 21:50:28 30° 296° (WNW) 1,479 4.1 -26.1°
Drops below altitude 10° 21:55:24 10° 356° (N) 2,470 4.9 -27.1°
Sets 21:58:10 0° 8° (N) 3,408 5.6 -27.6°
